Tracking 30970 objects as of 3-Jul-2025
HD Live streaming from Space Station
objects crossing your sky now

STARLINK-31842

Track STARLINK-31842 now!
10-day predictions
STARLINK-31842 is classified as:


NORAD ID: 59672
Int'l Code: 2024-084U
Perigee: 489.4 km
Apogee: 491.0 km
Inclination: 43.0 °
Period: 94.3 minutes
Semi major axis: 6861 km
RCS: Unknown
Launch date: May 6, 2024
Source: United States (US)
Launch site: AIR FORCE EASTERN TEST RANGE (AFETR)
Your satellite tracking list
STARLINK-31409
Track 1 satellite(s)




NASA's NSSDC Master Catalog

Two Line Element Set (TLE):
1 59672U 24084U   25183.92360415  .00000228  00000-0  17795-4 0  9991
2 59672  43.0012   8.9675 0001149 264.9971  95.0750 15.27576224 66211
Source of the keplerian elements: AFSPC